TimeAKDT,TemperatureF,Dew PointF,Humidity,Sea Level PressureIn,VisibilityMPH,Wind Direction,Wind SpeedMPH,Gust SpeedMPH,PrecipitationIn,Events,Conditions,WindDirDegrees,DateUTC
12:53 AM,48.9,46.0,90,29.79,10.0,Calm,Calm,-,N/A,,Mostly Cloudy,0,2013-08-21 08:53:00
1:15 AM,48.9,46.0,90,29.78,10.0,Calm,Calm,-,N/A,,Mostly Cloudy,0,2013-08-21 09:15:00
1:53 AM,48.9,46.9,93,29.80,4.0,Calm,Calm,-,N/A,,Mostly Cloudy,0,2013-08-21 09:53:00
2:53 AM,48.9,46.0,90,29.80,6.0,East,4.6,-,0.00,,Mostly Cloudy,90,2013-08-21 10:53:00
3:53 AM,48.0,46.0,93,29.80,6.0,Calm,Calm,-,0.01,Rain,Light Rain,0,2013-08-21 11:53:00
4:53 AM,48.0,46.0,93,29.81,9.0,Calm,Calm,-,0.00,,Overcast,0,2013-08-21 12:53:00
5:53 AM,48.0,45.0,89,29.81,10.0,South,3.5,-,N/A,,Overcast,180,2013-08-21 13:53:00
6:53 AM,48.0,45.0,89,29.81,10.0,ESE,3.5,-,N/A,,Overcast,120,2013-08-21 14:53:00
7:53 AM,48.0,45.0,89,29.81,10.0,ENE,4.6,-,N/A,,Overcast,60,2013-08-21 15:53:00
8:53 AM,48.9,45.0,86,29.82,7.0,NE,4.6,-,N/A,,Overcast,40,2013-08-21 16:53:00
9:53 AM,50.0,45.0,83,29.81,7.0,East,8.1,-,N/A,,Overcast,80,2013-08-21 17:53:00
10:53 AM,50.0,45.0,83,29.81,10.0,ENE,3.5,-,N/A,,Overcast,70,2013-08-21 18:53:00
11:35 AM,53.1,45.0,74,29.78,10.0,ESE,5.8,-,N/A,,Mostly Cloudy,110,2013-08-21 19:35:00
11:53 AM,54.0,45.0,72,29.80,10.0,ENE,4.6,-,N/A,,Mostly Cloudy,70,2013-08-21 19:53:00
12:53 PM,55.9,45.0,67,29.79,10.0,Calm,Calm,-,N/A,,Scattered Clouds,0,2013-08-21 20:53:00
1:53 PM,57.0,45.0,64,29.77,10.0,SSE,6.9,-,N/A,,Scattered Clouds,160,2013-08-21 21:53:00
2:53 PM,60.1,41.0,49,29.76,10.0,SSW,4.6,-,N/A,,Scattered Clouds,200,2013-08-21 22:53:00
3:53 PM,60.1,41.0,49,29.74,10.0,Calm,Calm,-,N/A,,Scattered Clouds,0,2013-08-21 23:53:00
4:53 PM,62.1,42.1,48,29.73,10.0,SE,4.6,-,N/A,,Scattered Clouds,130,2013-08-22 00:53:00
5:19 PM,62.1,39.9,44,29.71,10.0,Variable,3.5,-,N/A,,Scattered Clouds,0,2013-08-22 01:19:00
5:53 PM,62.1,39.9,44,29.72,10.0,West,4.6,-,N/A,,Mostly Cloudy,270,2013-08-22 01:53:00
6:53 PM,61.0,39.0,44,29.71,10.0,Calm,Calm,-,N/A,,Mostly Cloudy,0,2013-08-22 02:53:00
7:53 PM,62.1,39.0,43,29.71,10.0,Calm,Calm,-,N/A,,Scattered Clouds,0,2013-08-22 03:53:00
8:53 PM,57.9,45.0,62,29.71,10.0,Calm,Calm,-,N/A,,Scattered Clouds,0,2013-08-22 04:53:00
9:53 PM,53.1,45.0,74,29.71,10.0,West,3.5,-,N/A,,Scattered Clouds,280,2013-08-22 05:53:00
10:53 PM,50.0,43.0,77,29.71,10.0,Calm,Calm,-,N/A,,Scattered Clouds,0,2013-08-22 06:53:00
11:53 PM,50.0,39.9,68,29.71,10.0,NNW,4.6,-,N/A,,Partly Cloudy,340,2013-08-22 07:53:00